HAZ9133 ZSJN-ZYHB

Flight info

Callsign HAZ9133
Flight time 1h 45m
Altitude 39100
Route BASOV7Y BASOV W4 REPOL V42 GUMED W5 MAKNO W106 UDETI A588 NULRA W206 MAGBI W656 ISLUK W629 LARUN LAR39A
Aircraft A359/H-SDE2E3GHIJ3J4J5LM1ORWXY/LB1D1

Departure

Time 2026-04-20 12:18
Airport Jinan Yaoqiang International Airport (ZSJN)

Arrival

Time 2026-04-20 14:03
Airport Harbin Taiping International Airport (ZYHB)
Time Latitude Longitude Altitude Speed Heading
2026-04-20 11:51 36.85303 117.20875 89 ft 0 kts 270°
2026-04-20 12:07 36.85303 117.20879 89 ft 2 kts 270°
2026-04-20 12:07 36.85303 117.20898 89 ft 2 kts 270°
2026-04-20 12:08 36.85303 117.20917 89 ft 2 kts 271°
2026-04-20 12:08 36.85301 117.20935 89 ft 2 kts 291°
2026-04-20 12:08 36.85294 117.20952 89 ft 2 kts 307°
2026-04-20 12:08 36.85284 117.20966 89 ft 2 kts 322°
2026-04-20 12:09 36.85271 117.20976 89 ft 2 kts 338°
2026-04-20 12:09 36.85257 117.20980 89 ft 2 kts 354°
2026-04-20 12:09 36.85249 117.20981 89 ft 1 kts
2026-04-20 12:09 36.85248 117.20981 89 ft 0 kts
2026-04-20 12:11 36.85252 117.20981 89 ft 1 kts
2026-04-20 12:11 36.85264 117.20987 89 ft 2 kts 29°
2026-04-20 12:11 36.85279 117.21008 89 ft 3 kts 55°
2026-04-20 12:12 36.85295 117.21043 89 ft 5 kts 63°
2026-04-20 12:12 36.85313 117.21091 89 ft 7 kts 64°
2026-04-20 12:12 36.85336 117.21154 89 ft 8 kts 67°
2026-04-20 12:12 36.85364 117.21230 89 ft 10 kts 63°
2026-04-20 12:13 36.85386 117.21317 89 ft 10 kts 101°
2026-04-20 12:13 36.85331 117.21368 89 ft 10 kts 171°
2026-04-20 12:13 36.85259 117.21368 89 ft 10 kts 182°
2026-04-20 12:13 36.85178 117.21362 89 ft 12 kts 186°
2026-04-20 12:14 36.85089 117.21371 89 ft 13 kts 174°
2026-04-20 12:14 36.84992 117.21377 89 ft 14 kts 179°
2026-04-20 12:14 36.84884 117.21375 89 ft 16 kts 182°
2026-04-20 12:14 36.84767 117.21372 89 ft 17 kts 181°
2026-04-20 12:15 36.84639 117.21369 89 ft 18 kts 181°
2026-04-20 12:15 36.84505 117.21371 89 ft 20 kts 179°
2026-04-20 12:15 36.84361 117.21366 89 ft 21 kts 184°
2026-04-20 12:15 36.84215 117.21365 89 ft 18 kts 180°
2026-04-20 12:16 36.84122 117.21394 89 ft 9 kts 125°
2026-04-20 12:16 36.84116 117.21484 89 ft 11 kts 88°
2026-04-20 12:16 36.84137 117.21587 87 ft 12 kts 40°
2026-04-20 12:16 36.84202 117.21593 87 ft 9 kts 353°
2026-04-20 12:17 36.84283 117.21591 87 ft 24 kts 359°
2026-04-20 12:17 36.84724 117.21582 89 ft 100 kts 359°
2026-04-20 12:17 36.85634 117.21588 90 ft 160 kts 358°
2026-04-20 12:17 36.86819 117.21556 605 ft 169 kts 356°
2026-04-20 12:18 36.87977 117.21533 1344 ft 168 kts 358°
2026-04-20 12:18 36.89144 117.21552 2013 ft 172 kts 359°
2026-04-20 12:18 36.90381 117.21568 2531 ft 186 kts 359°
2026-04-20 12:18 36.91725 117.21574 3050 ft 201 kts 359°
2026-04-20 12:19 36.93158 117.21579 3591 ft 214 kts 359°
2026-04-20 12:19 36.94697 117.21584 4127 ft 231 kts 358°
2026-04-20 12:19 36.96330 117.21587 4893 ft 239 kts 358°
2026-04-20 12:19 36.98003 117.21590 5816 ft 241 kts 358°
2026-04-20 12:20 36.99669 117.21593 6731 ft 243 kts 357°
2026-04-20 12:20 37.01339 117.21592 7614 ft 244 kts 357°
2026-04-20 12:20 37.03030 117.21590 8440 ft 247 kts 357°
2026-04-20 12:20 37.04743 117.21588 9221 ft 250 kts 357°
2026-04-20 12:21 37.06506 117.21589 9993 ft 254 kts 357°
2026-04-20 12:21 37.08269 117.21587 10738 ft 257 kts 355°
2026-04-20 12:21 37.09969 117.21094 11454 ft 254 kts 328°
2026-04-20 12:21 37.11236 117.19644 12313 ft 251 kts 303°
2026-04-20 12:22 37.11870 117.17619 13064 ft 255 kts 279°
2026-04-20 12:22 37.11909 117.15395 13793 ft 259 kts 274°
2026-04-20 12:22 37.11907 117.13135 14420 ft 263 kts 274°
2026-04-20 12:22 37.11906 117.10872 15179 ft 261 kts 274°
2026-04-20 12:23 37.11901 117.08640 15963 ft 258 kts 275°
2026-04-20 12:23 37.11898 117.06433 16749 ft 253 kts 275°
2026-04-20 12:23 37.11906 117.04269 17496 ft 249 kts 277°
2026-04-20 12:23 37.12016 117.02142 18208 ft 245 kts 281°
2026-04-20 12:24 37.12190 117.00046 18931 ft 242 kts 281°
2026-04-20 12:24 37.12362 116.97971 19602 ft 241 kts 281°
2026-04-20 12:24 37.12532 116.95918 20211 ft 241 kts 280°
2026-04-20 12:24 37.12703 116.93843 20847 ft 240 kts 279°
2026-04-20 12:25 37.12873 116.91763 21442 ft 241 kts 279°
2026-04-20 12:25 37.13041 116.89687 22006 ft 241 kts 279°
2026-04-20 12:25 37.13211 116.87595 22553 ft 243 kts 279°
2026-04-20 12:25 37.13463 116.85523 23080 ft 243 kts 287°
2026-04-20 12:26 37.14204 116.83638 23638 ft 246 kts 301°
2026-04-20 12:26 37.15388 116.82038 24130 ft 256 kts 314°
2026-04-20 12:26 37.16987 116.80891 24343 ft 283 kts 328°
2026-04-20 12:26 37.18962 116.80263 24602 ft 300 kts 334°
2026-04-20 12:27 37.21042 116.79644 24840 ft 309 kts 333°
2026-04-20 12:27 37.23121 116.78911 25055 ft 316 kts 331°
2026-04-20 12:27 37.25255 116.78087 25291 ft 326 kts 332°
2026-04-20 12:27 37.27462 116.77241 25511 ft 337 kts 331°
2026-04-20 12:28 37.29740 116.76369 25727 ft 348 kts 332°
2026-04-20 12:28 37.32087 116.75478 25937 ft 358 kts 332°
2026-04-20 12:28 37.34493 116.74567 26128 ft 367 kts 332°
2026-04-20 12:28 37.36963 116.73628 26331 ft 376 kts 333°
2026-04-20 12:29 37.39530 116.72657 26512 ft 385 kts 333°
2026-04-20 12:29 37.42097 116.71686 26684 ft 394 kts 333°
2026-04-20 12:29 37.44772 116.70673 26878 ft 401 kts 333°
2026-04-20 12:29 37.47448 116.69662 27211 ft 404 kts 333°
2026-04-20 12:30 37.50140 116.68644 27594 ft 405 kts 333°
2026-04-20 12:30 37.52850 116.67623 27962 ft 407 kts 333°
2026-04-20 12:30 37.55536 116.66601 28302 ft 409 kts 333°
2026-04-20 12:30 37.58272 116.65566 28635 ft 411 kts 333°
2026-04-20 12:31 37.61042 116.64510 28921 ft 414 kts 333°
2026-04-20 12:31 37.63794 116.63460 29225 ft 416 kts 333°
2026-04-20 12:31 37.66562 116.62406 29557 ft 417 kts 333°
2026-04-20 12:31 37.69338 116.61346 29873 ft 419 kts 333°
2026-04-20 12:32 37.72201 116.60490 30121 ft 436 kts 342°
2026-04-20 12:32 37.75273 116.60315 30459 ft 446 kts 347°
2026-04-20 12:32 37.78409 116.60263 30706 ft 449 kts 347°
2026-04-20 12:32 37.81532 116.60217 30933 ft 451 kts 347°
2026-04-20 12:33 37.84666 116.60170 31290 ft 451 kts 347°
2026-04-20 12:33 37.87804 116.60113 31649 ft 450 kts 347°
2026-04-20 12:33 37.90922 116.60055 32028 ft 449 kts 346°
2026-04-20 12:33 37.94038 116.59990 32378 ft 448 kts 346°
2026-04-20 12:34 37.97147 116.59924 32747 ft 447 kts 346°
2026-04-20 12:34 38.00251 116.59847 33032 ft 447 kts 346°
2026-04-20 12:34 38.03361 116.59776 33339 ft 447 kts 346°
2026-04-20 12:34 38.06474 116.59702 33608 ft 447 kts 346°
2026-04-20 12:35 38.09560 116.59628 33977 ft 446 kts 346°
2026-04-20 12:35 38.12664 116.59560 34374 ft 444 kts 345°
2026-04-20 12:35 38.15733 116.59492 34718 ft 443 kts 345°
2026-04-20 12:35 38.18802 116.59422 35055 ft 442 kts 345°
2026-04-20 12:36 38.21878 116.59354 35395 ft 441 kts 345°
2026-04-20 12:36 38.24947 116.59280 35661 ft 441 kts 345°
2026-04-20 12:36 38.27990 116.59209 36092 ft 438 kts 345°
2026-04-20 12:36 38.31052 116.59137 36445 ft 436 kts 345°
2026-04-20 12:37 38.34082 116.59064 36723 ft 435 kts 345°
2026-04-20 12:37 38.37096 116.58993 37059 ft 433 kts 345°
2026-04-20 12:37 38.40109 116.58921 37281 ft 434 kts 345°
2026-04-20 12:37 38.43113 116.58843 37355 ft 436 kts 345°
2026-04-20 12:38 38.49209 116.58688 37498 ft 440 kts 345°
2026-04-20 12:38 38.52292 116.58613 37624 ft 442 kts 345°
2026-04-20 12:38 38.55350 116.58542 37791 ft 442 kts 345°
2026-04-20 12:39 38.61488 116.58400 38222 ft 440 kts 345°
2026-04-20 12:39 38.64519 116.58330 38427 ft 439 kts 345°
2026-04-20 12:39 38.67553 116.58257 38622 ft 438 kts 345°
2026-04-20 12:40 38.70615 116.58185 38848 ft 436 kts 345°
2026-04-20 12:40 38.73647 116.58114 39014 ft 436 kts 345°
2026-04-20 12:40 38.76682 116.58038 39096 ft 437 kts 344°
2026-04-20 12:41 38.82758 116.57885 39154 ft 441 kts 344°
2026-04-20 12:41 38.88939 116.57729 39140 ft 443 kts 344°
2026-04-20 12:42 38.95098 116.57582 39151 ft 446 kts 345°
2026-04-20 12:42 39.01295 116.57435 39138 ft 448 kts 344°
2026-04-20 12:43 39.07539 116.57278 39121 ft 448 kts 345°
2026-04-20 12:43 39.13851 116.57523 39122 ft 461 kts 351°
2026-04-20 12:44 39.20303 116.58645 39123 ft 476 kts 356°
2026-04-20 12:44 39.26821 116.60662 39078 ft 489 kts
2026-04-20 12:45 39.33305 116.63499 39096 ft 497 kts
2026-04-20 12:45 39.39825 116.66560 39107 ft 498 kts
2026-04-20 12:46 39.46313 116.69604 39091 ft 499 kts
2026-04-20 12:46 39.52828 116.72658 39120 ft 501 kts
2026-04-20 12:47 39.59373 116.75726 39095 ft 500 kts
2026-04-20 12:47 39.65935 116.78811 39086 ft 501 kts
2026-04-20 12:48 39.72483 116.81676 39096 ft 490 kts
2026-04-20 12:48 39.79008 116.83342 39076 ft 473 kts 353°
2026-04-20 12:49 39.85453 116.83778 39093 ft 457 kts 345°
2026-04-20 12:49 39.91686 116.83092 39073 ft 445 kts 339°
2026-04-20 12:50 39.97813 116.81889 39115 ft 443 kts 339°
2026-04-20 12:50 40.03887 116.80667 39107 ft 444 kts 339°
2026-04-20 12:51 40.09965 116.79444 39090 ft 444 kts 339°
2026-04-20 12:51 40.16107 116.78225 39083 ft 445 kts 339°
2026-04-20 12:52 40.22207 116.77002 39116 ft 446 kts 339°
2026-04-20 12:52 40.28367 116.75887 39095 ft 453 kts 342°
2026-04-20 12:53 40.34733 116.75461 39095 ft 462 kts 347°
2026-04-20 12:53 40.41270 116.76225 39101 ft 489 kts
2026-04-20 12:54 40.47599 116.79709 39101 ft 510 kts 17°
2026-04-20 12:54 40.53639 116.84660 39115 ft 513 kts 20°
2026-04-20 12:55 40.59664 116.89707 39105 ft 514 kts 20°
2026-04-20 12:55 40.65689 116.94734 39106 ft 513 kts 19°
2026-04-20 12:56 40.71691 116.99732 39108 ft 513 kts 19°
2026-04-20 12:56 40.77745 117.04773 39105 ft 513 kts 19°
2026-04-20 12:57 40.83752 117.09781 39089 ft 515 kts 20°
2026-04-20 12:57 40.89785 117.14826 39097 ft 515 kts 20°
2026-04-20 12:58 40.95824 117.19891 39079 ft 513 kts 20°
2026-04-20 12:58 41.01845 117.24947 39080 ft 514 kts 20°
2026-04-20 12:59 41.07853 117.30004 39080 ft 511 kts 20°
2026-04-20 12:59 41.13834 117.35038 39074 ft 513 kts 20°
2026-04-20 13:00 41.19888 117.40134 39089 ft 514 kts 20°
2026-04-20 13:00 41.25899 117.45226 39084 ft 512 kts 20°
2026-04-20 13:01 41.31902 117.50320 39086 ft 514 kts 20°
2026-04-20 13:01 41.37867 117.55399 39094 ft 511 kts 21°
2026-04-20 13:02 41.43843 117.60490 39085 ft 514 kts 21°
2026-04-20 13:02 41.49861 117.65639 39095 ft 514 kts 22°
2026-04-20 13:03 41.55851 117.70807 39081 ft 512 kts 22°
2026-04-20 13:03 41.61845 117.75974 39084 ft 512 kts 22°
2026-04-20 13:04 41.67804 117.81107 39088 ft 514 kts 22°
2026-04-20 13:04 41.73820 117.86299 39084 ft 513 kts 22°
2026-04-20 13:05 41.79775 117.91453 39073 ft 512 kts 22°
2026-04-20 13:05 41.85745 117.96627 39078 ft 511 kts 22°
2026-04-20 13:06 41.91678 118.01781 39057 ft 508 kts 23°
2026-04-20 13:06 41.97615 118.06944 39044 ft 512 kts 23°
2026-04-20 13:07 42.03574 118.12148 39062 ft 511 kts 23°
2026-04-20 13:07 42.09479 118.17344 39041 ft 513 kts 25°
2026-04-20 13:08 42.15030 118.23574 39045 ft 527 kts 36°
2026-04-20 13:08 42.19846 118.31162 39054 ft 541 kts 46°
2026-04-20 13:09 42.23744 118.39909 39056 ft 554 kts 56°
2026-04-20 13:09 42.27120 118.49274 39061 ft 557 kts 57°
2026-04-20 13:10 42.30449 118.58674 39058 ft 555 kts 57°
2026-04-20 13:10 42.33796 118.68039 39039 ft 555 kts 57°
2026-04-20 13:11 42.37138 118.77405 39037 ft 556 kts 57°
2026-04-20 13:11 42.40491 118.86809 39031 ft 556 kts 57°
2026-04-20 13:12 42.43841 118.96211 39027 ft 557 kts 57°
2026-04-20 13:12 42.47183 119.05620 39023 ft 556 kts 57°
2026-04-20 13:13 42.50511 119.15025 39019 ft 555 kts 57°
2026-04-20 13:13 42.53834 119.24433 39019 ft 556 kts 57°
2026-04-20 13:14 42.57123 119.33790 39015 ft 555 kts 57°
2026-04-20 13:14 42.60428 119.43217 39010 ft 555 kts 58°
2026-04-20 13:15 42.63720 119.52644 39008 ft 554 kts 58°
2026-04-20 13:15 42.67015 119.62103 39004 ft 555 kts 57°
2026-04-20 13:16 42.70292 119.71574 38999 ft 555 kts 58°
2026-04-20 13:16 42.73557 119.81055 38996 ft 556 kts 58°
2026-04-20 13:17 42.76821 119.90550 39005 ft 555 kts 58°
2026-04-20 13:17 42.80072 120.00015 38998 ft 555 kts 58°
2026-04-20 13:18 42.83323 120.09516 38966 ft 556 kts 58°
2026-04-20 13:18 42.86559 120.19009 38945 ft 556 kts 58°
2026-04-20 13:19 42.89809 120.28578 38927 ft 556 kts 58°
2026-04-20 13:19 42.93041 120.38126 38939 ft 557 kts 58°
2026-04-20 13:20 42.96254 120.47655 38963 ft 558 kts 58°
2026-04-20 13:20 42.99600 120.57215 38919 ft 557 kts 56°
2026-04-20 13:21 43.03019 120.66697 38939 ft 558 kts 57°
2026-04-20 13:21 43.06399 120.76186 38918 ft 558 kts 57°
2026-04-20 13:22 43.09769 120.85705 38923 ft 559 kts 57°
2026-04-20 13:22 43.13153 120.95224 38926 ft 559 kts 57°
2026-04-20 13:23 43.16524 121.04741 38932 ft 558 kts 57°
2026-04-20 13:23 43.19888 121.14304 38931 ft 557 kts 58°
2026-04-20 13:24 43.23233 121.23862 38931 ft 558 kts 58°
2026-04-20 13:24 43.26546 121.33375 38920 ft 557 kts 58°
2026-04-20 13:25 43.29867 121.42946 38927 ft 557 kts 58°
2026-04-20 13:25 43.33187 121.52558 38932 ft 556 kts 58°
2026-04-20 13:26 43.36474 121.62092 38918 ft 554 kts 58°
2026-04-20 13:26 43.39746 121.71641 38905 ft 554 kts 59°
2026-04-20 13:27 43.43007 121.81210 38916 ft 554 kts 59°
2026-04-20 13:27 43.46260 121.90762 38908 ft 553 kts 59°
2026-04-20 13:28 43.49504 122.00320 38906 ft 552 kts 59°
2026-04-20 13:28 43.52721 122.09826 38920 ft 552 kts 59°
2026-04-20 13:29 43.56166 122.19130 38915 ft 546 kts 54°
2026-04-20 13:29 43.60283 122.27866 38918 ft 540 kts 48°
2026-04-20 13:30 43.64654 122.36204 38904 ft 539 kts 48°
2026-04-20 13:30 43.69047 122.44573 38906 ft 538 kts 48°
2026-04-20 13:31 43.73380 122.52902 38890 ft 538 kts 48°
2026-04-20 13:31 43.77735 122.61308 38899 ft 538 kts 48°
2026-04-20 13:32 43.82058 122.69695 38894 ft 538 kts 49°
2026-04-20 13:32 43.86393 122.78159 38897 ft 538 kts 49°
2026-04-20 13:33 43.90710 122.86584 38888 ft 537 kts 49°
2026-04-20 13:33 43.95017 122.94966 38886 ft 535 kts 49°
2026-04-20 13:34 43.99393 123.03225 38872 ft 532 kts 48°
2026-04-20 13:34 44.03791 123.11492 38858 ft 533 kts 48°
2026-04-20 13:35 44.08157 123.19759 38852 ft 533 kts 48°
2026-04-20 13:35 44.12522 123.28034 38845 ft 534 kts 48°
2026-04-20 13:36 44.16902 123.36337 38848 ft 534 kts 49°
2026-04-20 13:36 44.21271 123.44677 38837 ft 533 kts 48°
2026-04-20 13:37 44.25597 123.52975 38834 ft 534 kts 49°
2026-04-20 13:37 44.29944 123.61343 38827 ft 534 kts 49°
2026-04-20 13:38 44.34282 123.69736 38813 ft 534 kts 50°
2026-04-20 13:38 44.38611 123.78154 38811 ft 535 kts 50°
2026-04-20 13:39 44.42947 123.86592 38789 ft 535 kts 50°
2026-04-20 13:39 44.47281 123.94996 38784 ft 534 kts 49°
2026-04-20 13:40 44.51666 124.03365 38781 ft 532 kts 48°
2026-04-20 13:40 44.56672 124.10719 38767 ft 521 kts 33°
2026-04-20 13:41 44.62712 124.16019 38781 ft 510 kts 20°
2026-04-20 13:41 44.69118 124.20184 38754 ft 515 kts 26°
2026-04-20 13:41 44.72020 124.23181 38771 ft 524 kts 38°
2026-04-20 13:42 44.74478 124.27008 38780 ft 530 kts 48°
2026-04-20 13:42 44.80998 124.39617 38765 ft 533 kts 50°
2026-04-20 13:43 44.85313 124.48036 38606 ft 528 kts 50°
2026-04-20 13:43 44.87393 124.52071 38095 ft 525 kts 50°
2026-04-20 13:43 44.89527 124.56202 37330 ft 527 kts 50°
2026-04-20 13:44 44.91688 124.60387 36593 ft 529 kts 50°
2026-04-20 13:44 44.93844 124.64562 35878 ft 531 kts 50°
2026-04-20 13:44 44.96004 124.68763 35214 ft 532 kts 50°
2026-04-20 13:44 44.98173 124.73002 34432 ft 531 kts 51°
2026-04-20 13:45 45.00301 124.77158 33567 ft 533 kts 50°
2026-04-20 13:45 45.02468 124.81388 32765 ft 535 kts 50°
2026-04-20 13:45 45.04634 124.85630 32005 ft 536 kts 50°
2026-04-20 13:45 45.06798 124.89869 31293 ft 536 kts 49°
2026-04-20 13:46 45.08969 124.94126 30556 ft 536 kts 49°
2026-04-20 13:46 45.11140 124.98376 29643 ft 534 kts 48°
2026-04-20 13:46 45.13305 125.02593 28754 ft 531 kts 48°
2026-04-20 13:46 45.15464 125.06808 27821 ft 529 kts 48°
2026-04-20 13:47 45.17601 125.11000 27110 ft 520 kts 47°
2026-04-20 13:47 45.19679 125.15101 26713 ft 506 kts 47°
2026-04-20 13:47 45.21685 125.19074 26196 ft 497 kts 47°
2026-04-20 13:47 45.23677 125.23015 25320 ft 494 kts 47°
2026-04-20 13:48 45.25692 125.27001 24186 ft 494 kts 47°
2026-04-20 13:48 45.27665 125.30910 23408 ft 486 kts 47°
2026-04-20 13:48 45.29596 125.34750 22681 ft 478 kts 47°
2026-04-20 13:48 45.31509 125.38545 21880 ft 472 kts 47°
2026-04-20 13:49 45.33396 125.42294 21037 ft 467 kts 47°
2026-04-20 13:49 45.35261 125.46010 20201 ft 462 kts 47°
2026-04-20 13:49 45.37112 125.49706 19361 ft 458 kts 47°
2026-04-20 13:49 45.38922 125.53333 18766 ft 448 kts 48°
2026-04-20 13:50 45.40714 125.56929 17986 ft 442 kts 48°
2026-04-20 13:50 45.42474 125.60453 16932 ft 443 kts 48°
2026-04-20 13:50 45.44207 125.64047 16045 ft 440 kts 50°
2026-04-20 13:50 45.45877 125.67669 15304 ft 433 kts 51°
2026-04-20 13:51 45.47498 125.71221 14639 ft 424 kts 51°
2026-04-20 13:51 45.49068 125.74664 14212 ft 411 kts 51°
2026-04-20 13:51 45.50602 125.78013 13726 ft 400 kts 51°
2026-04-20 13:51 45.52133 125.81336 12926 ft 399 kts 51°
2026-04-20 13:52 45.53652 125.84618 11993 ft 402 kts 51°
2026-04-20 13:52 45.55188 125.87942 11402 ft 399 kts 52°
2026-04-20 13:52 45.56682 125.91196 11174 ft 387 kts 52°
2026-04-20 13:52 45.58122 125.94339 10954 ft 376 kts 51°
2026-04-20 13:53 45.59541 125.97434 10729 ft 364 kts 51°
2026-04-20 13:53 45.60906 126.00415 10505 ft 354 kts 51°
2026-04-20 13:53 45.62225 126.03296 10312 ft 344 kts 51°
2026-04-20 13:53 45.63551 126.06097 10122 ft 332 kts 45°
2026-04-20 13:54 45.65115 126.08393 9949 ft 316 kts 34°
2026-04-20 13:54 45.66777 126.10354 9608 ft 312 kts 32°
2026-04-20 13:54 45.68480 126.12288 9190 ft 312 kts 32°
2026-04-20 13:54 45.70150 126.14198 8955 ft 305 kts 32°
2026-04-20 13:55 45.71773 126.16082 8776 ft 297 kts 33°
2026-04-20 13:55 45.73364 126.17941 8580 ft 290 kts 32°
2026-04-20 13:55 45.74902 126.19739 8298 ft 287 kts 32°
2026-04-20 13:55 45.76432 126.21529 7969 ft 285 kts 33°
2026-04-20 13:56 45.77974 126.23336 7652 ft 284 kts 33°
2026-04-20 13:56 45.79474 126.25099 7496 ft 276 kts 33°
2026-04-20 13:56 45.80929 126.26817 7285 ft 268 kts 33°
2026-04-20 13:56 45.82327 126.28519 7081 ft 262 kts 40°
2026-04-20 13:57 45.83193 126.30799 6863 ft 265 kts 79°
2026-04-20 13:57 45.82950 126.33340 6725 ft 256 kts 121°
2026-04-20 13:57 45.81788 126.35113 6579 ft 239 kts 151°
2026-04-20 13:57 45.80438 126.36421 6479 ft 229 kts 148°
2026-04-20 13:58 45.79232 126.37843 6234 ft 219 kts 141°
2026-04-20 13:58 45.78184 126.39334 5935 ft 209 kts 137°
2026-04-20 13:58 45.77221 126.40856 5498 ft 205 kts 137°
2026-04-20 13:58 45.76062 126.41863 4951 ft 189 kts 182°
2026-04-20 13:59 45.74960 126.41339 4434 ft 161 kts 234°
2026-04-20 13:59 45.74339 126.40076 3935 ft 157 kts 241°
2026-04-20 13:59 45.73660 126.38861 3428 ft 159 kts 236°
2026-04-20 13:59 45.72903 126.37711 2942 ft 160 kts 231°
2026-04-20 14:00 45.72116 126.36616 2471 ft 159 kts 229°
2026-04-20 14:00 45.71329 126.35585 2151 ft 149 kts 226°
2026-04-20 14:00 45.70558 126.34642 1796 ft 144 kts 225°
2026-04-20 14:00 45.69796 126.33740 1631 ft 142 kts 223°
2026-04-20 14:01 45.69033 126.32847 1614 ft 143 kts 223°
2026-04-20 14:01 45.68256 126.31939 1597 ft 143 kts 223°
2026-04-20 14:01 45.67498 126.31051 1548 ft 143 kts 223°
2026-04-20 14:01 45.66724 126.30144 1341 ft 142 kts 222°
2026-04-20 14:02 45.65961 126.29252 1151 ft 142 kts 222°
2026-04-20 14:02 45.65216 126.28381 955 ft 136 kts 221°
2026-04-20 14:02 45.64491 126.27537 737 ft 133 kts 220°
2026-04-20 14:02 45.63773 126.26695 581 ft 133 kts 220°
2026-04-20 14:03 45.63053 126.25857 486 ft 134 kts 219°
2026-04-20 14:03 45.62380 126.25062 472 ft 105 kts 218°
2026-04-20 14:03 45.62037 126.24633 472 ft 25 kts 231°
2026-04-20 14:03 45.61959 126.24406 472 ft 26 kts 248°
2026-04-20 14:04 45.61894 126.24194 472 ft 17 kts 234°
2026-04-20 14:04 45.61850 126.24118 472 ft 6 kts 258°
2026-04-20 14:04 45.61856 126.24076 472 ft 0 kts 302°
2026-04-20 14:04 45.61860 126.24068 472 ft 0 kts 302°
2026-04-20 14:05 45.61863 126.24060 472 ft 0 kts 301°
2026-04-20 14:05 45.61867 126.24050 472 ft 1 kts 297°
2026-04-20 14:05 45.61871 126.24026 472 ft 3 kts 275°
2026-04-20 14:05 45.61863 126.23990 472 ft 4 kts 233°
2026-04-20 14:06 45.61835 126.23954 472 ft 6 kts 219°
2026-04-20 14:06 45.61795 126.23917 472 ft 7 kts 212°
2026-04-20 14:06 45.61750 126.23871 472 ft 8 kts 216°
2026-04-20 14:06 45.61701 126.23811 472 ft 9 kts 237°
2026-04-20 14:07 45.61701 126.23716 472 ft 10 kts 300°
2026-04-20 14:07 45.61751 126.23626 472 ft 12 kts 303°
2026-04-20 14:07 45.61765 126.23548 472 ft 4 kts 265°
2026-04-20 14:07 45.61755 126.23505 472 ft 4 kts 240°
2026-04-20 14:08 45.61735 126.23466 472 ft 4 kts 237°
2026-04-20 14:08 45.61731 126.23443 472 ft 0 kts 268°
2026-04-20 14:08 45.61730 126.23426 472 ft 2 kts 263°
2026-04-20 14:08 45.61730 126.23404 472 ft 1 kts 274°